Location: *
(45.9500°N, 9.0833°E)
Time: 00:05:40
(UTC+00:00)

Vanguard 2 Rocket - Pass Details

Date: 13 June 2021
Orbit: 555 x 3325 km, 32.9° (Epoch: 03 August)

Event Time Altitude Azimuth Distance (km) Brightness Sun altitude
Rises 21:26:25 0° 243° (WSW) 6,931 11.4 -15.8°
Reaches altitude 10° 21:31:53 10° 238° (WSW) 5,589 10.8 -16.3°
Maximum altitude 21:45:41 40° 177° (S) 2,668 8.8 -17.3°
Drops below altitude 10° 21:54:08 10° 111° (ESE) 3,455 9.5 -17.9°
Enters shadow 21:54:58 - 108° (ESE) 3,662 9.6 -17.9°
Sets 21:56:41 0° 103° (ESE) 4,127 - -18.0°
